Oklahoma City, OK

12:11 AM CDT on June 26, 2017 (GMT -0500)
Will Rogers World

Weather History for KOKC - March, 2013

Change the Weather History Date:

Sunday, March 10, 2013

  Actual Average Record
Temperature  
Mean Temperature 48 °F 50 °F  
Max Temperature 59 °F 62 °F 89 °F (1955)
Min Temperature 36 °F 39 °F 4 °F (1948)
Degree Days  
Heating Degree Days 17 15  
Month to date heating degree days 177 161  
Since 1 July heating degree days 2746 2911  
Cooling Degree Days 0 0  
Month to date cooling degree days 0 0  
Year to date cooling degree days 2 1  
Moisture  
Dew Point 31 °F    
Average Humidity 66    
Maximum Humidity 85    
Minimum Humidity 47    
Precipitation  
Precipitation T in 0.09 in 1.48 in (1974)
Month to date precipitation 0.31 0.90  
Year to date precipitation 4.17 3.87  
Snow  
Snow 0.00 in 0.10 in 8.10 in (1948)
Month to date snowfall 0.0 0.4  
Since 1 July snowfall 7.7 7.1  
Snow Depth -    
Sea Level Pressure  
Sea Level Pressure 29.88 in    
Wind  
Wind Speed 18 mph (NW)    
Max Wind Speed 29 mph    
Max Gust Speed 36 mph    
Visibility 9 miles    
Events Rain    
T = Trace of Precipitation, MM = Missing Value Source: NWS Daily Summary

Daily Weather History Graph

Daily Weather History Graph

Search for Another Location

Airport or City:

Trip Planner

Search our weather history database for the weather conditions in past years. The results will help you decide how hot, cold, wet, or windy it might be!

Date:

Astronomy

Mar. 10, 2013 Rise Set
Actual Time 7:47 AM CDT 7:33 PM CDT
Civil Twilight 7:22 AM CDT 7:59 PM CDT
Nautical Twilight 6:52 AM CDT 8:28 PM CDT
Astronomical Twilight 6:23 AM CDT 8:58 PM CDT
Moon 6:47 AM CDT (3/10) 6:43 PM CDT (3/10)
Length of Visible Light 12h 37m
Length of Day
11h 46m
Waning Crescent, 2% of the Moon is Illuminated
Mar 10
Waning Crescent
Mar 11
New
Mar 19
First Quarter
Mar 27
Full
Apr 2
Last Quarter

Hourly Weather History & Observations

Time (CDT) Temp. Windchill Dew Point Humidity Pressure Visibility Wind Dir Wind Speed Gust Speed Precip Events Conditions
12:52 AM 55.0 °F - 37.9 °F 53% 29.69 in 10.0 mi SSW 11.5 mph - N/A   Overcast
1:52 AM 55.0 °F - 36.0 °F 49% 29.65 in 10.0 mi South 16.1 mph - N/A   Overcast
3:25 AM 48.2 °F - 39.2 °F 71% 29.70 in 10.0 mi WNW 23.0 mph 28.8 mph N/A   Mostly Cloudy
3:32 AM 48.2 °F - 39.2 °F 71% 29.70 in 10.0 mi WNW 16.1 mph - N/A   Overcast
3:52 AM 46.0 °F 39.3 °F 37.9 °F 73% 29.68 in 10.0 mi WNW 16.1 mph - N/A   Overcast
4:52 AM 43.0 °F 35.4 °F 36.0 °F 76% 29.71 in 10.0 mi WNW 16.1 mph - N/A   Mostly Cloudy
5:34 AM 42.8 °F 35.8 °F 35.6 °F 76% 29.72 in 10.0 mi WNW 13.8 mph - N/A   Overcast
5:52 AM 43.0 °F 37.2 °F 35.1 °F 74% 29.73 in 10.0 mi WNW 10.4 mph - N/A   Overcast
6:52 AM 43.0 °F 34.2 °F 35.1 °F 74% 29.75 in 10.0 mi NW 20.7 mph 27.6 mph N/A   Overcast
7:28 AM 41.0 °F 31.6 °F 35.6 °F 81% 29.76 in 10.0 mi NW 20.7 mph - N/A   Overcast
7:52 AM 39.9 °F 29.5 °F 35.1 °F 83% 29.78 in 10.0 mi NNW 24.2 mph 29.9 mph N/A   Overcast
8:52 AM 39.0 °F 28.3 °F 33.1 °F 79% 29.80 in 10.0 mi NW 24.2 mph 28.8 mph N/A   Overcast
9:39 AM 37.4 °F 26.6 °F 33.8 °F 87% 29.83 in 2.5 mi NW 21.9 mph 29.9 mph 0.00 in Rain Light Rain
9:52 AM 37.0 °F 25.4 °F 33.1 °F 86% 29.85 in 2.5 mi NW 25.3 mph 31.1 mph 0.00 in Rain Light Rain
10:16 AM 37.4 °F 26.6 °F 33.8 °F 87% 29.85 in 3.0 mi NW 21.9 mph - 0.00 in   Light Drizzle
10:52 AM 37.0 °F 26.4 °F 33.1 °F 86% 29.88 in 10.0 mi NNW 20.7 mph 29.9 mph 0.00 in   Overcast
11:20 AM 37.4 °F 26.6 °F 33.8 °F 87% 29.88 in 10.0 mi NNW 21.9 mph 31.1 mph 0.00 in   Overcast
11:52 AM 37.9 °F 28.2 °F 32.0 °F 79% 29.90 in 10.0 mi NW 18.4 mph 26.5 mph 0.00 in Rain Light Rain
12:52 PM 37.9 °F 27.3 °F 28.9 °F 70% 29.92 in 10.0 mi NW 21.9 mph 32.2 mph 0.00 in   Overcast
1:52 PM 37.0 °F 25.4 °F 28.0 °F 70% 29.94 in 10.0 mi NW 25.3 mph 32.2 mph N/A   Overcast
2:52 PM 39.9 °F 29.2 °F 26.1 °F 58% 29.94 in 10.0 mi NNW 25.3 mph 32.2 mph N/A   Overcast
3:09 PM 39.2 °F 29.0 °F 26.6 °F 61% 29.95 in 10.0 mi NW 21.9 mph 29.9 mph N/A   Overcast
3:52 PM 39.0 °F 28.0 °F 27.0 °F 62% 29.96 in 10.0 mi NNW 25.3 mph 31.1 mph N/A   Overcast
4:52 PM 39.0 °F 28.0 °F 26.1 °F 60% 29.98 in 10.0 mi NNW 25.3 mph 33.4 mph N/A   Overcast
5:52 PM 37.9 °F 27.6 °F 26.1 °F 62% 29.99 in 10.0 mi NNW 20.7 mph - N/A   Overcast
6:52 PM 37.0 °F 27.0 °F 26.1 °F 65% 30.01 in 10.0 mi NNW 18.4 mph - N/A   Overcast
7:52 PM 37.0 °F 27.7 °F 25.0 °F 62% 30.03 in 10.0 mi NNW 16.1 mph - N/A   Overcast
8:52 PM 36.0 °F 28.0 °F 26.1 °F 67% 30.05 in 10.0 mi NNW 11.5 mph - N/A   Overcast
9:52 PM 36.0 °F 28.5 °F 26.1 °F 67% 30.08 in 10.0 mi NNW 10.4 mph - N/A   Overcast
10:52 PM 35.6 °F 29.2 °F 26.6 °F 70% 30.07 in 10.0 mi NW 8.1 mph - N/A   Overcast
11:52 PM 36.0 °F 29.6 °F 27.0 °F 70% 30.08 in 10.0 mi NW 8.1 mph - N/A   Overcast
12:52 AM 36.0 °F 30.3 °F 27.0 °F 70% 30.06 in 10.0 mi WNW 6.9 mph - N/A   Mostly Cloudy